Regional Weather Roundup
Issued by NWS

Home | Current Version | Previous Version | Graphics & Text | Print | Product List | Glossary On
Versions: 1 2 3 4 5 6 7 8 9 10 11 12 13 14 15 16 17 18 19 20 21 22 23 24 25 26 27 28 29 30 31 32 33 34 35 36 37 38 39 40 41 42 43 44 45 46 47 48 49 50
000
ASUS43 KIND 201409
RWRIN

WEATHER ROUNDUP FOR INDIANA
NATIONAL WEATHER SERVICE INDIANAPOLIS IN
1000 AM EDT WED SEP 20 2017

NOTE: "FAIR" INDICATES FEW OR NO CLOUDS BELOW 12,000 FEET WITH NO
SIGNIFICANT WEATHER AND/OR OBSTRUCTIONS TO VISIBILITY.

* - STATION DOES NOT REPORT WEATHER SUCH AS PRECIPITATION OR FOG.

+ - STATION NOT QUALITY CONTROLLED BY THE NATIONAL WEATHER SERVICE.
    USE DATA WITH CAUTION...ESPECIALLY DEWPOINT AND RELATIVE
    HUMIDITY OBSERVATIONS.

INZ001>003-010>013-019-020-201500-
NORTHWEST INDIANA

CITY           SKY/WX    TMP DP  RH WIND       PRES   REMARKS
GARY /AIRPORT/ SUNNY     72  68  88 SE9       29.94F
KNOX *+        PTSUNNY   68  66  94 SE6       29.98R
LA PORTE +     PTSUNNY   67  66  99 SE3       29.99S FOG
MICHIGAN CITY+ SUNNY     68  68 100 SE5       29.97S
MONTICELLO +   SUNNY     70  68  95 S5        29.98R
RENSSELAER +   SUNNY     64  61  88 SE7       29.97S FOG
VALPARAISO     MOSUNNY   70  68  93 SE6       29.97S FOG

$$

LMZ046-743>745-201500-
SOUTHERN LAKE MICHIGAN

STATION/POSITION TIME  TEMP    WIND        PRES    WAVE
                       AIR SEA DIR/SP/G            HT
                 (UTC) (F)     (DEG/KT/KT) (MB)    (FT)
BURNS HARBOR     1340   71     160/  6/ 15 1014.6S
MICHIGAN CITY    1340   69     130/ 11/ 13   N/A
5NW MICH CITY    1400   69 69  160/ 10/ 12   N/A     1

$$

INZ004-005-014>016-021>024-201500-
NORTH CENTRAL INDIANA

CITY           SKY/WX    TMP DP  RH WIND       PRES   REMARKS
ELKHART        CLOUDY    66  66 100 SE5       30.00S FOG
GOSHEN         FOG       66  64  93 SE7       30.00S VSB 1/4
LOGANSPORT +   SUNNY     70  70 100 S6        30.01R
PERU/GRISSOM   SUNNY     72  72 100 S7        29.99S
ROCHESTER +    PTSUNNY   73  72  94 SE5       30.00S FOG
SOUTH BEND     PTSUNNY   67  67 100 SE8       29.99S FOG
WARSAW +       FOG       64  64 100 CALM      30.01S VSB 1/2

$$

INZ006>009-017-018-025>027-201500-
NORTHEAST INDIANA

CITY           SKY/WX    TMP DP  RH WIND       PRES   REMARKS
AUBURN +       FOG       64  63  94 CALM      30.03S VSB 1/4
FORT WAYNE     MOSUNNY   70  68  93 S3        30.02S
HUNTINGTON +   SUNNY     71  69  96 CALM      30.01S
KENDALLVILLE + FOG       65  65 100 SE5       30.02S VSB 1/4

$$

INZ028-029-035-036-043>045-051>053-201500-
WEST CENTRAL INDIANA

CITY           SKY/WX    TMP DP  RH WIND       PRES   REMARKS
CRAWFORDSVL +  SUNNY     72  72 100 S7        29.99
GREENCASTLE +  SUNNY     70  70 100 S7        30.01S
LAFAYETTE      SUNNY     72  70  93 VRB3      29.97S
TERRE HAUTE    SUNNY     74  69  85 S8        29.99R

$$

INZ030>032-037>040-046>048-054>057-064-065-201500-
CENTRAL INDIANA

CITY           SKY/WX    TMP DP  RH WIND       PRES   REMARKS
ANDERSON       PTSUNNY   68  68 100 S5        30.03R
CP ATTERBURY + FOG       68  66  94 SE3       30.04R VSB 1/2
COLUMBUS       FOG       68  66  94 S3        30.03R VSB 1
FRANKFORT +    SUNNY     76  72  87 S5        30.01S
GREENWOOD *+   CLOUDY    70  70  99 SE3       30.03S VSB 1/4
INDIANAPOLIS   FOG       69  68  96 SE7       30.01R VSB 1/8
-EAGLE CREEK   MOSUNNY   71  67  87 VRB5      30.01R
KOKOMO +       MOSUNNY   70  69  97 S8        30.02R FOG
MT COMFORT *+    N/A    N/A N/A N/A MISG        N/A
SHELBYVILLE    CLOUDY    70  67  90 S5        30.03R FOG
ZIONSVILLE +   SUNNY     70  70  99 S6        30.03R FOG

$$

INZ033-034-041-042-049-050-058-059-201500-
EAST CENTRAL INDIANA

CITY           SKY/WX    TMP DP  RH WIND       PRES   REMARKS
MUNCIE         SUNNY     75  68  78 S6        30.03R
RICHMOND +     MOSUNNY   72  70  94 SW8       30.06R FOG

$$

INZ060-061-067>069-081>083-085>088-201500-
SOUTHWEST INDIANA

CITY           SKY/WX    TMP DP  RH WIND       PRES   REMARKS
EVANSVILLE     SUNNY     74  69  85 S3        30.01R
HUNTINGBURG +    N/A    N/A N/A N/A MISG        N/A
WASHINGTON +   SUNNY     75  69  82 S5        30.00R

$$

INZ062-063-066-070>080-084-089>092-201500-
SOUTH CENTRAL AND SOUTHEAST INDIANA

CITY           SKY/WX    TMP DP  RH WIND       PRES   REMARKS
BEDFORD +      SUNNY     70  68  94 SE5       30.02R
BLOOMINGTON    PTSUNNY   69  67  93 SE6       30.02R FOG
MADISON *+     CLOUDY    68  68 100 E3        30.07S VSB 1/4
NORTH VERNON + SUNNY     68  68 100 CALM      30.05S
SEYMOUR +      FOG       70  70 100 SE5       30.03S VSB 1/2

$$





USA.gov is the U.S. government's official web portal to all federal, state and local government web resources and services.